Regional Weather Roundup
Issued by NWS Kansas City/Pleasant Hill, MO

Home | Current Version | Previous Version | Text Only | Print | Product List | Glossary On
Versions: 1 2 3 4 5 6 7 8 9 10 11 12 13 14 15 16 17 18 19 20 21 22 23 24 25 26 27
000
ASUS43 KEAX 241910
RWREAX

WEATHER ROUNDUP FOR EASTERN KANSAS AND NORTHWEST MISSOURI
NATIONAL WEATHER SERVICE KANSAS CITY/PLEASANT HILL MO
200 PM CDT TUE MAY 24 2016

KSZ040-057-103>105-MOZ028-029-037-043-242000-
...KANSAS CITY METROPOLITAN AREA...

CITY           SKY/WX    TMP DP  RH WIND       PRES   REMARKS
K.C. INTL      CLOUDY    72  61  68 SE24G32   29.86F
K.C. DOWNTOWN  CLOUDY    75  62  64 SE12G23   29.90F
LEES SUMMIT    CLOUDY    73  66  78 SE15      29.95F
OLATHE - IXD   CLOUDY    74  64  71 SE17      29.92F
OLATHE - OJC   CLOUDY    73  64  73 SE14      29.92F
LAWRENCE       CLOUDY    78  64  61 SE15      29.89F

$$

MOZ001>008-011>017-020>025-030>033-038>040-044>046-053-054-242000-
...NORTHERN AND CENTRAL MISSOURI...

CITY           SKY/WX    TMP DP  RH WIND       PRES   REMARKS
ST. JOSEPH     CLOUDY    74  63  68 SE15      29.87R
MOSBY          CLOUDY    72  63  73 SE16G23   29.91F
WARRENSBURG    CLOUDY    68  63  83 SE6       29.99R
WHITEMAN AFB   CLOUDY    68  68 100 S9        29.97F
CLINTON        CLOUDY    66  66 100 CALM      30.00S THUNDER FOG
SEDALIA        CLOUDY    68  65  90 S10       30.00F
WARSAW         NOT AVBL
CHILLICOTHE      N/A     75  64  68 S8G17     29.91F
KIRKSVILLE     CLOUDY    76  67  73 S8        29.95F

$$

MOZ041-047>049-056>058-063>065-088>090-097-242000-
...EASTERN AND SOUTHERN MISSOURI...

CITY           SKY/WX    TMP DP  RH WIND       PRES   REMARKS
ST. LOUIS INTL PTSUNNY   86  62  44 SW12      29.99S
SPIRIT OF STL  CLOUDY    81  66  60 SW10      29.98R
COLUMBIA       CLOUDY    69  66  90 S9        30.01R
JEFFERSON CITY CLOUDY    68  65  90 S14       30.03R
ROLLA          LGT RAIN  66  64  93 SE5       30.04R FOG
SPRINGFIELD    CLOUDY    66  61  84 NE10      30.03F
BRANSON        RAIN      72  68  88 NW17G29   30.05R
JOPLIN         CLOUDY    72  68  87 E12       29.98F
WEST PLAINS    CLOUDY    69  66  90 E8        30.02F FOG

$$

IAZ060-094-KSZ022-034>040-054-083-096-NEZ052-066-093-242000-
...KANSAS...SOUTHEAST NEBRASKA AND IOWA...

CITY           SKY/WX    TMP DP  RH WIND       PRES   REMARKS
TOPEKA         CLOUDY    78  62  57 SE16      29.87F
MANHATTAN      CLOUDY    82  59  45 SE15G24   29.88R
EMPORIA        SUNNY     76  61  59 SE18G28   29.91F
CHANUTE        CLOUDY    76  66  71 SE9       29.96S
WICHITA        MOSUNNY   80  69  69 E17       29.89F
OMAHA          CLOUDY    78  60  53 CALM      29.87S
LINCOLN        CLOUDY    77  60  55 W5        29.90S
FALLS CITY     MOSUNNY   81  62  52 SW7       29.87R
LAMONI         PTSUNNY   78  63  59 CALM      29.92R
DES MOINES     PTSUNNY   77  63  61 CALM      29.91S

$$





USA.gov is the U.S. government's official web portal to all federal, state and local government web resources and services.